TimeAST,TemperatureF,Dew PointF,Humidity,Sea Level PressureIn,VisibilityMPH,Wind Direction,Wind SpeedMPH,Gust SpeedMPH,PrecipitationIn,Events,Conditions,WindDirDegrees,DateUTC
12:56 AM,78.1,73.9,87,30.06,10.0,ESE,3.5,-,N/A,,Scattered Clouds,110,2013-05-08 04:56:00
1:56 AM,77.0,75.0,94,30.04,10.0,Calm,Calm,-,N/A,,Scattered Clouds,0,2013-05-08 05:56:00
2:56 AM,77.0,73.9,90,30.03,10.0,Calm,Calm,-,N/A,,Scattered Clouds,0,2013-05-08 06:56:00
3:56 AM,78.1,73.9,87,30.03,10.0,Calm,Calm,-,N/A,,Mostly Cloudy,0,2013-05-08 07:56:00
4:56 AM,78.1,75.0,90,30.04,10.0,ESE,3.5,-,N/A,,Mostly Cloudy,110,2013-05-08 08:56:00
5:56 AM,75.9,73.0,91,30.06,10.0,Calm,Calm,-,0.03,,Overcast,0,2013-05-08 09:56:00
6:56 AM,77.0,73.0,88,30.08,10.0,Calm,Calm,-,N/A,,Mostly Cloudy,0,2013-05-08 10:56:00
7:56 AM,79.0,73.0,82,30.10,10.0,Calm,Calm,-,N/A,,Mostly Cloudy,0,2013-05-08 11:56:00
8:56 AM,82.0,75.0,79,30.12,10.0,ESE,5.8,-,N/A,,Mostly Cloudy,120,2013-05-08 12:56:00
9:56 AM,84.0,75.0,74,30.13,10.0,Calm,Calm,-,N/A,,Scattered Clouds,0,2013-05-08 13:56:00
10:56 AM,86.0,77.0,74,30.12,10.0,ENE,16.1,-,N/A,,Mostly Cloudy,60,2013-05-08 14:56:00
11:56 AM,81.0,75.9,85,30.12,9.0,Variable,4.6,17.3,0.09,Rain,Light Rain,0,2013-05-08 15:56:00
12:56 PM,84.9,75.0,72,30.10,10.0,East,12.7,20.7,0.01,,Mostly Cloudy,90,2013-05-08 16:56:00
1:56 PM,84.9,75.0,72,30.07,10.0,ENE,17.3,23.0,N/A,,Mostly Cloudy,70,2013-05-08 17:56:00
2:56 PM,82.0,75.9,82,30.06,9.0,ENE,17.3,24.2,0.00,Rain-Thunderstorm,Light Thunderstorms and Rain,70,2013-05-08 18:56:00
3:38 PM,80.6,75.2,84,30.06,10.0,East,16.1,21.9,0.00,,Overcast,80,2013-05-08 19:38:00
3:56 PM,81.0,75.0,82,30.06,10.0,ENE,16.1,21.9,0.00,,Overcast,70,2013-05-08 19:56:00
4:14 PM,80.6,75.2,84,30.07,10.0,East,16.1,-,N/A,Thunderstorm,Thunderstorm,80,2013-05-08 20:14:00
4:56 PM,78.1,73.9,87,30.07,5.0,East,15.0,23.0,0.00,Rain-Thunderstorm,Light Thunderstorms and Rain,80,2013-05-08 20:56:00
5:36 PM,75.2,73.4,94,30.08,5.0,East,17.3,23.0,0.05,Rain,Light Rain,100,2013-05-08 21:36:00
5:50 PM,75.2,73.4,94,30.09,2.5,East,12.7,-,0.05,Rain,Heavy Rain,90,2013-05-08 21:50:00
5:56 PM,75.9,73.0,91,30.09,2.5,East,13.8,20.7,0.09,Rain,Rain,100,2013-05-08 21:56:00
6:45 PM,75.2,73.4,94,30.09,3.0,East,9.2,-,0.15,Rain,Light Rain,100,2013-05-08 22:45:00
6:56 PM,75.9,73.9,94,30.09,3.0,East,9.2,-,0.15,Rain,Light Rain,90,2013-05-08 22:56:00
7:18 PM,75.2,73.4,94,30.10,10.0,ENE,8.1,-,0.00,Rain,Light Rain,70,2013-05-08 23:18:00
7:56 PM,75.9,73.9,94,30.10,10.0,East,8.1,-,0.01,,Mostly Cloudy,90,2013-05-08 23:56:00
8:56 PM,77.0,73.9,90,30.10,10.0,East,6.9,-,0.00,,Scattered Clouds,100,2013-05-09 00:56:00
9:56 PM,77.0,73.9,90,30.11,10.0,East,8.1,-,0.00,,Scattered Clouds,100,2013-05-09 01:56:00
10:56 PM,78.1,75.0,90,30.12,4.0,ENE,9.2,-,0.06,Rain,Light Rain,70,2013-05-09 02:56:00
11:38 PM,75.2,73.4,94,30.12,2.0,East,12.7,27.6,0.36,Rain,Heavy Rain,100,2013-05-09 03:38:00
11:50 PM,77.0,73.4,89,30.11,4.0,East,16.1,-,0.59,Rain,Rain,90,2013-05-09 03:50:00
11:56 PM,77.0,73.9,90,30.11,5.0,East,13.8,-,N/A,Rain,Light Rain,100,2013-05-09 03:56:00